Location: Shandelee
(41.8790°N, 74.8713°W)
Time: 03:38:58
(UTC+00:00)

H-2A R/B - Pass Details

Date: 29 October 2020
Orbit: 733 x 837 km, 98.2° (Epoch: 23 November)

Event Time Altitude Azimuth Distance (km) Brightness Sun altitude
Exits shadow 22:58:23 - 131° (SE) 3,132 4.8 -12.0°
Reaches altitude 10° 23:00:24 10° 122° (ESE) 2,436 4.1 -12.4°
Maximum altitude 23:04:54 28° 65° (ENE) 1,543 3.0 -13.2°
Drops below altitude 10° 23:09:26 10° 9° (N) 2,459 4.5 -14.0°
Sets 23:12:06 0° 358° (N) 3,394 5.3 -14.5°
